This demonstration page uses our WeatherBlox Daily Observations layout. Learn more.

Left ArrowRight Arrow

Hourly Observations for January 16, 2015

Temp ( °F °C ) Dew Point ( °F °C ) Humidity (%) Winds ( mph kmh ) Pressure ( in mb ) Visibility ( mi km ) Precip ( " mm )
12:52 am 00:52 Clear 25 -3.9 22 -5.6 88 88 SSE 6 9 30.18 1022 10 16 0.00 0.00
1:52 am 01:52 Clear 25 -3.9 23 -5 92 92 S 7 11 30.16 1022 10 16 0.00 0.00
2:52 am 02:52 Clear 26 -3.3 23 -5 88 88 S 8 13 30.14 1021 10 16 0.00 0.00
3:52 am 03:52 Clear 25 -3.9 22 -5.6 88 88 SE 10 17 30.14 1021 10 16 0.00 0.00
4:52 am 04:52 Clear 25 -3.9 22 -5.6 88 88 SE 9 15 30.12 1020 10 16 0.00 0.00
5:52 am 05:52 Clear 26 -3.3 23 -5 88 88 SSE 12 19 30.09 1019 10 16 0.00 0.00
6:52 am 06:52 Mostly Clear 25 -3.9 22 -5.6 88 88 SSE 13 20 30.08 1019 10 16 0.00 0.00
7:52 am 07:52 Sunny 25 -3.9 22 -5.6 88 88 SE 12 19 30.04 1017 10 16 0.00 0.00
8:52 am 08:52 Sunny 29 -1.7 25 -3.9 85 85 SSE 13 20 30.04 1017 10 16 0.00 0.00
9:52 am 09:52 Mostly Sunny 35 1.7 27 -2.8 72 72 SSE 14 22 30.01 1016 10 16 0.00 0.00
10:52 am 10:52 Sunny 39 3.9 29 -1.7 67 67 SSE 9 15 30.00 1016 10 16 0.00 0.00
11:52 am 11:52 Sunny 50 10 28 -2.2 43 43 SW 15 24 29.96 1014 10 16 0.00 0.00
11:59 am 11:59 Sunny 50 10 28 -2.2 43 43 SSW 13 20 29.94 1014 10 16 0.00 0.00
12:52 pm 12:52 Sunny 52 11.1 27 -2.8 38 38 SW 12 19 29.91 1013 10 16 0.00 0.00
1:52 pm 13:52 Partly Cloudy 56 13.3 26 -3.3 32 32 SSW 13 20 29.87 1012 10 16 0.00 0.00
2:52 pm 14:52 Partly Cloudy 58 14.4 27 -2.8 31 31 SW 10 17 29.85 1011 10 16 0.00 0.00
3:52 pm 15:52 Partly Cloudy 59 15 27 -2.8 29 29 WSW 6 9 29.83 1010 10 16 0.00 0.00
4:52 pm 16:52 Partly Cloudy 55 12.8 27 -2.8 34 34 WSW 5 7 29.82 1010 10 16 0.00 0.00
5:52 pm 17:52 Mostly Cloudy 45 7.2 27 -2.8 49 49 Calm 29.81 1009 10 16 0.00 0.00
6:52 pm 18:52 Cloudy 41 5 28 -2.2 60 60 Calm 29.83 1010 10 16 0.00 0.00
7:52 pm 19:52 Cloudy 48 8.9 28 -2.2 46 46 SSE 12 19 29.80 1009 10 16 0.00 0.00
8:52 pm 20:52 Cloudy 44 6.7 27 -2.8 51 51 SE 7 11 29.80 1009 10 16 0.00 0.00
9:52 pm 21:52 Cloudy 44 6.7 27 -2.8 51 51 SSE 9 15 29.77 1008 10 16 0.00 0.00
10:52 pm 22:52 Mostly Cloudy 43 6.1 28 -2.2 56 56 SSE 10 17 29.75 1008 10 16 0.00 0.00
11:52 pm 23:52 Mostly Cloudy 44 6.7 29 -1.7 55 55 SSE 8 13 29.74 1007 10 16 0.00 0.00

Powered by AerisWeather